• In Netherlands
  • List of Countries
  • For 7 days
  • Water Temperature
  • Satellite Maps
  • Weather Map
  • Weather Widgets
  • user-avatar
    Login

    Hourly Weather Tirana

    Today, 15 December, Friday

    Time Temperature Precipitation Wind Pressure Humidity
    00:00 +8°C° 0 mm 6 mps 753 mmHg 81%
    01:00 +8°C° 0 mm 6 mps 753 mmHg 81%
    02:00 +8°C° 0 mm 6 mps 753 mmHg 81%
    03:00 +9°C° 0 mm 6 mps 753 mmHg 81%
    04:00 +9°C° 0 mm 6 mps 753 mmHg 80%
    05:00 +9°C° 0 mm 6 mps 752 mmHg 80%
    06:00 +9°C° 0 mm 7 mps 752 mmHg 80%
    07:00 +9°C° 0 mm 7 mps 752 mmHg 81%
    08:00 +10°C° 0.2 mm 7 mps 751 mmHg 80%
    09:00 +11°C° 0.2 mm 7 mps 751 mmHg 78%
    10:00 +11°C° 0.2 mm 8 mps 751 mmHg 77%
    11:00 +12°C° 0.2 mm 8 mps 750 mmHg 77%
    12:00 +12°C° 0.2 mm 9 mps 750 mmHg 77%
    13:00 +12°C° 0.2 mm 9 mps 750 mmHg 77%
    14:00 +12°C° 0.1 mm 9 mps 749 mmHg 79%
    15:00 +12°C° 0.1 mm 9 mps 749 mmHg 81%
    16:00 +12°C° 0.1 mm 10 mps 749 mmHg 83%
    17:00 +11°C° 0.1 mm 10 mps 749 mmHg 84%
    18:00 +11°C° 0.1 mm 10 mps 749 mmHg 86%
    19:00 +9°C° 0.1 mm 10 mps 748 mmHg 87%
    20:00 +9°C° 0 mm 10 mps 748 mmHg 87%
    21:00 +9°C° 0 mm 10 mps 748 mmHg 87%
    22:00 +9°C° 0 mm 10 mps 748 mmHg 87%
    23:00 +9°C° 0.3 mm 10 mps 748 mmHg 87%

    Tomorrow, 16 December, Saturday

    Time Temperature Precipitation Wind Pressure Humidity
    00:00 +9°C° 0.3 mm 10 mps 747 mmHg 87%
    01:00 +9°C° 0.3 mm 10 mps 747 mmHg 88%
    02:00 +9°C° 0.2 mm 11 mps 747 mmHg 87%
    03:00 +9°C° 0.2 mm 11 mps 746 mmHg 87%
    04:00 +11°C° 0.2 mm 11 mps 746 mmHg 86%
    05:00 +11°C° 1 mm 10 mps 746 mmHg 87%
    06:00 +11°C° 1 mm 9 mps 746 mmHg 87%
    07:00 +10°C° 1 mm 9 mps 746 mmHg 87%
    08:00 +11°C° 1.7 mm 8 mps 747 mmHg 87%
    09:00 +11°C° 1.7 mm 8 mps 747 mmHg 87%
    10:00 +12°C° 1.7 mm 8 mps 747 mmHg 87%
    11:00 +12°C° 2.8 mm 7 mps 747 mmHg 88%
    12:00 +13°C° 2.8 mm 6 mps 747 mmHg 89%
    13:00 +13°C° 2.8 mm 6 mps 747 mmHg 90%
    14:00 +12°C° 2 mm 5 mps 747 mmHg 91%
    15:00 +12°C° 2 mm 3 mps 747 mmHg 93%
    16:00 +12°C° 2 mm 2 mps 747 mmHg 94%
    17:00 +12°C° 1.2 mm 2 mps 747 mmHg 95%
    18:00 +12°C° 1.2 mm 2 mps 748 mmHg 95%
    19:00 +10°C° 1.2 mm 2 mps 748 mmHg 95%
    20:00 +10°C° 1 mm 2 mps 748 mmHg 95%
    21:00 +10°C° 1 mm 2 mps 748 mmHg 95%
    22:00 +10°C° 1 mm 2 mps 748 mmHg 95%
    23:00 +10°C° 0.9 mm 2 mps 749 mmHg 95%

    Day after tomorrow, 17 December, Sunday

    Time Temperature Precipitation Wind Pressure Humidity
    00:00 +9°C° 0.9 mm 2 mps 749 mmHg 96%
    01:00 +9°C° 0.9 mm 3 mps 749 mmHg 96%
    02:00 +9°C° 0.4 mm 3 mps 749 mmHg 95%
    03:00 +9°C° 0.4 mm 3 mps 749 mmHg 94%
    04:00 +8°C° 0.4 mm 3 mps 749 mmHg 93%
    05:00 +8°C° 0.2 mm 3 mps 749 mmHg 92%
    06:00 +8°C° 0.2 mm 3 mps 750 mmHg 91%
    07:00 +7°C° 0.2 mm 3 mps 750 mmHg 89%
    08:00 +8°C° 0.3 mm 3 mps 750 mmHg 82%
    09:00 +9°C° 0.3 mm 3 mps 751 mmHg 75%
    10:00 +10°C° 0.3 mm 4 mps 751 mmHg 68%
    11:00 +10°C° 0.5 mm 4 mps 751 mmHg 68%
    12:00 +10°C° 0.5 mm 4 mps 751 mmHg 69%
    13:00 +9°C° 0.5 mm 5 mps 751 mmHg 70%
    14:00 +8°C° 0.4 mm 4 mps 751 mmHg 74%
    15:00 +8°C° 0.4 mm 4 mps 752 mmHg 79%
    16:00 +7°C° 0.4 mm 4 mps 752 mmHg 83%
    17:00 +7°C° 0.7 mm 4 mps 753 mmHg 83%
    18:00 +6°C° 0.7 mm 5 mps 753 mmHg 82%
    19:00 +5°C° 0.7 mm 6 mps 754 mmHg 82%
    20:00 +5°C° 1 mm 6 mps 755 mmHg 81%
    21:00 +5°C° 1 mm 6 mps 755 mmHg 80%
    22:00 +5°C° 1 mm 7 mps 756 mmHg 79%
    23:00 +5°C° 0.7 mm 7 mps 756 mmHg 82%

    18 December, Monday

    Time Temperature Precipitation Wind Pressure Humidity
    00:00 +4°C° 0.7 mm 7 mps 757 mmHg 84%
    01:00 +4°C° 0.7 mm 7 mps 757 mmHg 86%
    02:00 +4°C° 0.2 mm 6 mps 757 mmHg 87%
    03:00 +3°C° 0.2 mm 6 mps 757 mmHg 88%
    04:00 +3°C° 0.2 mm 5 mps 758 mmHg 89%
    05:00 +3°C° 0.1 mm 5 mps 758 mmHg 89%
    06:00 +2°C° 0.1 mm 5 mps 758 mmHg 88%
    07:00 +3°C° 0.1 mm 4 mps 759 mmHg 88%
    08:00 +4°C° 0 mm 4 mps 759 mmHg 84%
    09:00 +4°C° 0 mm 4 mps 759 mmHg 80%
    10:00 +5°C° 0 mm 4 mps 760 mmHg 76%
    11:00 +5°C° 0 mm 4 mps 759 mmHg 74%
    12:00 +6°C° 0 mm 4 mps 759 mmHg 72%
    13:00 +6°C° 0 mm 4 mps 759 mmHg 71%
    14:00 +5°C° 0 mm 4 mps 759 mmHg 72%
    15:00 +5°C° 0 mm 4 mps 759 mmHg 74%
    16:00 +4°C° 0 mm 3 mps 759 mmHg 75%
    17:00 +3°C° 0 mm 3 mps 759 mmHg 76%
    18:00 +2°C° 0 mm 3 mps 759 mmHg 77%
    19:00 +2°C° 0 mm 3 mps 760 mmHg 79%
    20:00 +1°C° 0 mm 3 mps 760 mmHg 79%
    21:00 +1°C° 0 mm 3 mps 760 mmHg 79%
    22:00 +2°C° 0 mm 2 mps 761 mmHg 79%
    23:00 +2°C° 0 mm 2 mps 761 mmHg 78%

    19 December, Tuesday

    Time Temperature Precipitation Wind Pressure Humidity
    00:00 +2°C° 0 mm 2 mps 761 mmHg 78%
    01:00 +2°C° 0 mm 2 mps 761 mmHg 77%
    02:00 +2°C° 0 mm 2 mps 761 mmHg 76%
    03:00 +2°C° 0 mm 2 mps 761 mmHg 76%
    04:00 +1°C° 0 mm 2 mps 761 mmHg 75%
    05:00 +1°C° 0 mm 2 mps 761 mmHg 74%
    06:00 0°C° 0 mm 3 mps 761 mmHg 73%
    07:00 0°C° 0 mm 3 mps 762 mmHg 72%
    08:00 +3°C° 0 mm 2 mps 762 mmHg 68%
    09:00 +4°C° 0 mm 2 mps 762 mmHg 64%
    10:00 +6°C° 0 mm 2 mps 763 mmHg 60%
    11:00 +7°C° 0 mm 2 mps 763 mmHg 57%
    12:00 +8°C° 0 mm 2 mps 762 mmHg 55%
    13:00 +8°C° 0 mm 2 mps 762 mmHg 52%
    14:00 +7°C° 0 mm 2 mps 762 mmHg 55%
    15:00 +6°C° 0 mm 2 mps 762 mmHg 58%
    16:00 +5°C° 0 mm 2 mps 762 mmHg 62%
    17:00 +4°C° 0 mm 3 mps 762 mmHg 63%
    18:00 +3°C° 0 mm 3 mps 762 mmHg 65%
    19:00 +3°C° 0 mm 3 mps 762 mmHg 66%
    20:00 +2°C° 0 mm 3 mps 762 mmHg 66%
    21:00 +2°C° 0 mm 3 mps 762 mmHg 67%
    22:00 +2°C° 0 mm 3 mps 763 mmHg 67%
    23:00 +2°C° 0 mm 3 mps 763 mmHg 67%

    20 December, Wednesday

    Time Temperature Precipitation Wind Pressure Humidity
    00:00 +2°C° 0 mm 3 mps 763 mmHg 67%
    01:00 +2°C° 0 mm 3 mps 763 mmHg 68%
    02:00 +2°C° 0 mm 3 mps 762 mmHg 68%
    03:00 +2°C° 0 mm 3 mps 762 mmHg 68%
    04:00 +2°C° 0 mm 3 mps 762 mmHg 69%
    05:00 +1°C° 0 mm 3 mps 762 mmHg 69%
    06:00 +1°C° 0 mm 3 mps 762 mmHg 69%
    07:00 +1°C° 0 mm 3 mps 762 mmHg 70%
    08:00 +3°C° 0 mm 3 mps 762 mmHg 66%
    09:00 +4°C° 0 mm 3 mps 762 mmHg 63%
    10:00 +5°C° 0 mm 3 mps 762 mmHg 60%
    11:00 +7°C° 0 mm 3 mps 762 mmHg 58%
    12:00 +8°C° 0 mm 3 mps 761 mmHg 56%
    13:00 +8°C° 0 mm 3 mps 761 mmHg 55%
    14:00 +6°C° 0 mm 4 mps 761 mmHg 58%
    15:00 +5°C° 0 mm 4 mps 761 mmHg 62%
    16:00 +5°C° 0 mm 4 mps 761 mmHg 65%
    17:00 +3°C° 0 mm 5 mps 762 mmHg 67%
    18:00 +2°C° 0 mm 5 mps 762 mmHg 68%
    19:00 +1°C° 0 mm 5 mps 762 mmHg 69%
    20:00 +1°C° 0 mm 6 mps 762 mmHg 70%
    21:00 +1°C° 0 mm 6 mps 762 mmHg 70%
    22:00 +1°C° 0 mm 6 mps 763 mmHg 70%
    23:00 +1°C° 0 mm 6 mps 762 mmHg 70%
    Show more